Flag for Germany Weather past 2 weeks in Hannover, Lower Saxony, Germany

52 °F

Partly cloudy.

Feels Like: 46 °F
Forecast: 42 / 51 °F
Wind: 22 mph from Southwest

Location: Hannover

Current Time: Nov 29, 2015 at 7:45:27 PM

Latest Report: Nov 29, 2015 at 7:20 PM

Visibility: N/A

Pressure: 29.56 "Hg

Humidity: 82%

Dew point: 46 °F

Location of HannoverLocation

Historic Weather in Hannover — Graph


Hannover temperature yesterday

Maximum temperature yesterday: 45 °F (at 12:20 PM)
Minimum temperature yesterday: 36 °F (at 12:20 AM)
Average temperature yesterday: 41 °F

Past Weeks' High & Low Weather Summary

High59 °F (Nov 17, 11:20 PM)100% (Nov 14, 9:20 PM)30.21 "Hg (Nov 14, 9:20 PM)
Low32 °F (Nov 21, 11:50 PM)67% (Nov 18, 7:20 PM)29.33 "Hg (Nov 21, 5:20 AM)
Average44 °F89%29.77 "Hg
* Reported Nov 14 6:20 PM — Nov 29 6:20 PM, Hannover, Weather by CustomWeather, © 2015

Note: Actual official high and low records may vary slightly from our data, if they occured in-between our weather recording intervals... More about our weather records


Hannover weather history for previous 24 hours

Time TempWeatherWind HumidityBarometerVisibility
6:20 PM
Sun, Nov 29
50 °FLight rain. Partly cloudy.18 mph88%29.59 "HgN/A
5:50 PM50 °FPartly cloudy.20 mph88%29.59 "Hg6 mi
5:20 PM50 °FPassing clouds.18 mph88%29.59 "Hg5 mi
4:50 PM48 °FLight rain. Passing clouds.15 mph94%29.62 "Hg4 mi
4:20 PM46 °FLight rain. Partly cloudy.13 mph93%29.62 "HgN/A
3:50 PM48 °FLight rain. Broken clouds.13 mph87%29.62 "HgN/A
3:20 PM50 °FLight rain. Broken clouds.16 mph82%29.65 "HgN/A
2:50 PM48 °FBroken clouds.16 mph87%29.65 "HgN/A
2:20 PM48 °FBroken clouds.15 mph87%29.65 "HgN/A
1:50 PM48 °FPartly sunny.15 mph87%29.68 "HgN/A
1:20 PM46 °FLight rain. Partly sunny.12 mph93%29.68 "HgN/A
12:50 PM46 °FLight rain. Partly sunny.12 mph93%29.68 "HgN/A
12:20 PM45 °FLight rain. Partly sunny.12 mph100%29.68 "HgN/A
11:50 AM45 °FLight rain. Partly sunny.10 mph100%29.71 "HgN/A
11:20 AM46 °FLight rain. Broken clouds.15 mph93%29.71 "HgN/A
10:50 AM48 °FBroken clouds.13 mph87%29.71 "HgN/A
10:20 AM46 °FPartly sunny.13 mph93%29.71 "HgN/A
9:50 AM46 °FBroken clouds.14 mph93%29.68 "HgN/A
9:20 AM46 °FBroken clouds.14 mph87%29.68 "HgN/A
8:50 AM46 °FBroken clouds.13 mph87%29.68 "HgN/A
8:20 AM45 °FBroken clouds.15 mph93%29.68 "HgN/A
7:50 AM45 °FSprinkles. Passing clouds.15 mph93%29.68 "HgN/A
7:20 AM45 °FPassing clouds.15 mph87%29.68 "HgN/A
6:50 AM45 °FLight rain. Passing clouds.16 mph87%29.68 "HgN/A
6:20 AM45 °FPartly cloudy.16 mph87%29.68 "HgN/A
5:50 AM45 °FPassing clouds.17 mph87%29.68 "HgN/A
5:20 AM43 °FLight rain. Mostly cloudy.17 mph93%29.68 "HgN/A
4:50 AM43 °FLight rain. Mostly cloudy.20 mph87%29.68 "HgN/A
4:20 AM43 °FLight rain. Partly cloudy.20 mph87%29.68 "HgN/A
3:50 AM43 °FLight rain. Partly cloudy.21 mph87%29.68 "HgN/A
3:20 AM43 °FLight rain. Mostly cloudy.20 mph87%29.68 "HgN/A
2:50 AM43 °FLight rain. Partly cloudy.17 mph87%29.68 "HgN/A
2:20 AM41 °FLight rain. Passing clouds.21 mph93%29.71 "HgN/A
1:50 AM41 °FLight rain. Passing clouds.23 mph87%29.71 "HgN/A
1:20 AM41 °FLight rain. Passing clouds.22 mph87%29.71 "HgN/A
12:20 AM43 °FPassing clouds.18 mph76%29.74 "HgN/A
11:50 PM
Sat, Nov 28
41 °FPassing clouds.15 mph81%29.77 "HgN/A
11:20 PM41 °FLight rain. Passing clouds.16 mph81%29.80 "HgN/A
10:50 PM43 °FLight rain. Passing clouds.17 mph76%29.80 "HgN/A
10:20 PM43 °FPassing clouds.17 mph76%29.83 "HgN/A
9:20 PM41 °FClear.14 mph76%29.86 "Hg10 mi
8:50 PM41 °FClear.14 mph76%29.86 "Hg10 mi
8:20 PM41 °FClear.14 mph81%29.86 "Hg10 mi
7:50 PM41 °FPassing clouds.12 mph81%29.86 "HgN/A
7:20 PM41 °FPassing clouds.10 mph81%29.86 "HgN/A
Weather by CustomWeather, © 2015

See weather overviewHow to use our weather pages